Location: Poughquag
(41.6090°N, 73.6820°W)
Time: 06:02:08
(UTC-05:00)

STRAND 1 - Pass Details

Date: 05 December 2023
Orbit: 766 x 778 km, 98.4° (Epoch: 24 February)

Event Time Altitude Azimuth Distance (km) Brightness Sun altitude
Exits shadow 19:44:48 23° 305° (NW) 1,578 ? -36.7°
Maximum altitude 19:45:21 24° 295° (WNW) 1,560 ? -36.8°
Drops below altitude 10° 19:49:20 10° 243° (WSW) 2,304 ? -37.5°
Sets 19:52:01 0° 230° (SW) 3,228 ? -38.0°
